Location: Bremen
(53.0793°N, 8.8017°E)
Time: 14:38:55
(UTC+01:00)

S-56A Canister/Altair - Pass Details

Date: 08 December 2021
Orbit: 634 x 2499 km, 38.9° (Epoch: 28 January)

Event Time Altitude Azimuth Distance (km) Brightness Sun altitude
Rises 00:00:32 0° 235° (SW) 5,455 - -59.5°
Reaches altitude 10° 00:05:05 10° 226° (SW) 4,147 - -59.6°
Maximum altitude 00:13:26 28° 174° (S) 2,370 - -59.6°
Drops below altitude 10° 00:19:32 10° 118° (ESE) 2,964 - -59.6°
Sets 00:22:12 0° 106° (ESE) 3,691 - -59.6°
